TimeCDT,TemperatureF,Dew PointF,Humidity,Sea Level PressureIn,VisibilityMPH,Wind Direction,Wind SpeedMPH,Gust SpeedMPH,PrecipitationIn,Events,Conditions,WindDirDegrees,DateUTC
12:55 AM,30.9,26.1,82,30.42,10.0,North,4.6,-,N/A,,Clear,350,2012-10-27 05:55:00
1:55 AM,28.9,25.0,85,30.40,10.0,North,4.6,-,N/A,,Clear,10,2012-10-27 06:55:00
2:55 AM,28.0,25.0,88,30.42,10.0,North,4.6,-,N/A,,Clear,350,2012-10-27 07:55:00
3:55 AM,28.0,24.1,85,30.40,10.0,North,6.9,-,N/A,,Clear,360,2012-10-27 08:55:00
4:55 AM,27.0,24.1,89,30.39,10.0,North,6.9,-,N/A,,Clear,10,2012-10-27 09:55:00
5:55 AM,27.0,23.0,85,30.39,10.0,North,5.8,-,N/A,,Clear,350,2012-10-27 10:55:00
6:55 AM,26.1,21.9,84,30.40,10.0,North,5.8,-,N/A,,Clear,350,2012-10-27 11:55:00
7:55 AM,27.0,23.0,85,30.43,10.0,NNW,4.6,-,N/A,,Clear,330,2012-10-27 12:55:00
8:55 AM,32.0,26.6,80,30.41,10.0,NNW,5.8,-,N/A,,Clear,330,2012-10-27 13:55:00
9:55 AM,37.0,26.1,65,30.44,10.0,North,6.9,-,N/A,,Clear,10,2012-10-27 14:55:00
10:55 AM,39.0,25.0,57,30.42,10.0,NE,11.5,-,N/A,,Clear,40,2012-10-27 15:55:00
11:55 AM,41.0,25.0,53,30.42,10.0,NNE,9.2,-,N/A,,Clear,20,2012-10-27 16:55:00
12:55 PM,43.0,25.0,49,30.38,10.0,NNE,9.2,-,N/A,,Clear,20,2012-10-27 17:55:00
1:55 PM,42.1,24.1,49,30.36,10.0,Variable,3.5,-,N/A,,Clear,0,2012-10-27 18:55:00
2:55 PM,43.0,26.1,51,30.34,10.0,NNE,6.9,-,N/A,,Clear,20,2012-10-27 19:55:00
3:55 PM,43.0,26.1,51,30.33,10.0,North,5.8,-,N/A,,Clear,10,2012-10-27 20:55:00
4:55 PM,44.1,26.1,49,30.32,10.0,North,5.8,-,N/A,,Clear,360,2012-10-27 21:55:00
5:55 PM,39.0,26.1,60,30.32,10.0,NNE,6.9,-,N/A,,Clear,20,2012-10-27 22:55:00
6:55 PM,36.0,25.0,64,30.32,10.0,NNE,4.6,-,N/A,,Clear,20,2012-10-27 23:55:00
7:55 PM,33.1,25.0,72,30.33,10.0,North,3.5,-,N/A,,Clear,350,2012-10-28 00:55:00
8:55 PM,33.1,25.0,72,30.33,10.0,North,5.8,-,N/A,,Clear,350,2012-10-28 01:55:00
9:55 PM,32.0,26.1,79,30.34,10.0,NNE,5.8,-,N/A,,Clear,20,2012-10-28 02:55:00
10:55 PM,33.1,26.1,75,30.35,10.0,NNE,3.5,-,N/A,,Clear,20,2012-10-28 03:55:00
11:55 PM,33.1,26.1,75,30.35,10.0,NNE,4.6,-,N/A,,Clear,30,2012-10-28 04:55:00